This is the latest recevied weather packets stored in our database for station/object F4GQK-13. If no packets are shown the sender has not sent any weather packets the latest 10 day(s).
| Time | Temp. | Humidity | Pressure | Rain* | Wind** | Luminosity | Snow |
|---|---|---|---|---|---|---|---|
| 1776926705 | 9.44° C | 68% | 1027.1 hPa | 0 mm | - | 129 W/m² | - |
| 1776926406 | 8.89° C | 68% | 1026.9 hPa | 0 mm | - | 115 W/m² | - |
| 1776926105 | 8.89° C | 69% | 1026.7 hPa | 0 mm | - | 105 W/m² | - |
| 1776925805 | 8.33° C | 70% | 1026.7 hPa | 0 mm | - | 94 W/m² | - |
| 1776925505 | 8.33° C | 71% | 1026.7 hPa | 0 mm | - | 84 W/m² | - |
| 1776925203 | 7.78° C | 72% | 1026.7 hPa | 0 mm | - | 76 W/m² | - |
| 1776924905 | 7.78° C | 72% | 1026.6 hPa | 0 mm | - | 67 W/m² | - |
| 1776924605 | 7.22° C | 73% | 1026.7 hPa | 0 mm | - | 59 W/m² | - |
| 1776924306 | 7.22° C | 74% | 1026.6 hPa | 0 mm | - | 52 W/m² | - |
| 1776924004 | 6.67° C | 74% | 1026.4 hPa | 0 mm | - | 46 W/m² | - |
| 1776923706 | 6.67° C | 75% | 1026.4 hPa | 0 mm | - | 40 W/m² | - |
| 1776923405 | 6.67° C | 75% | 1026.5 hPa | 0 mm | - | 36 W/m² | - |
| 1776923105 | 6.11° C | 75% | 1026.5 hPa | 0 mm | - | 33 W/m² | - |
| 1776922805 | 6.11° C | 76% | 1026.3 hPa | 0 mm | - | 31 W/m² | - |
| 1776922506 | 5.56° C | 77% | 1026.4 hPa | 0 mm | - | 28 W/m² | - |
| 1776922205 | 5.56° C | 76% | 1026.3 hPa | 0 mm | - | 26 W/m² | - |
| 1776921905 | 5.56° C | 78% | 1026.3 hPa | 0 mm | - | 24 W/m² | - |
| 1776921605 | 5° C | 79% | 1026.1 hPa | 0 mm | - | 21 W/m² | - |
| 1776921305 | 5° C | 79% | 1026.3 hPa | 0 mm | - | 19 W/m² | - |
| 1776921004 | 5° C | 79% | 1025.9 hPa | 0 mm | - | 16 W/m² | - |
| 1776920706 | 5° C | 79% | 1026 hPa | 0 mm | - | 13 W/m² | - |
| 1776920404 | 5° C | 80% | 1026 hPa | 0 mm | - | 10 W/m² | - |
| 1776920106 | 5° C | 79% | 1025.9 hPa | 0 mm | - | 8 W/m² | - |
| 1776919805 | 5° C | 79% | 1025.8 hPa | 0 mm | - | 5 W/m² | - |
| 1776919505 | 5° C | 78% | 1025.8 hPa | 0 mm | - | 3 W/m² | - |
* Rain latest hour (hover to see other rain measurements)
** Current wind speed in m/s (hover to see current wind gust speed)